When you browse on this site, cookies collect data to enhance your experience and personalize the content and advertising you see.
Visit our Privacy Policy to learn more. By continuing to use the site, you agree to this use of cookies and data.
  • In Hungary
  • List of Countries
  • For 7 days
  • Water Temperature
  • Satellite Maps
  • Weather Map
  • News
  • Weather Widgets
  • user-avatar
    Login

    Hourly Weather Amsterdam

    Today, 16 November, Friday

    Time Temperature Precipitation Wind Pressure Humidity
    00:00 +3°C° 0 mm 3 mps 769 mmHg 76%
    01:00 +3°C° 0 mm 3 mps 769 mmHg 76%
    02:00 +2°C° 0 mm 3 mps 769 mmHg 76%
    03:00 +2°C° 0 mm 3 mps 769 mmHg 75%
    04:00 +2°C° 0 mm 3 mps 769 mmHg 76%
    05:00 +1°C° 0 mm 3 mps 769 mmHg 77%
    06:00 +1°C° 0 mm 3 mps 770 mmHg 79%
    07:00 +2°C° 0 mm 3 mps 770 mmHg 76%
    08:00 +3°C° 0 mm 3 mps 770 mmHg 73%
    09:00 +3°C° 0 mm 3 mps 770 mmHg 70%
    10:00 +5°C° 0 mm 3 mps 770 mmHg 67%
    11:00 +7°C° 0 mm 3 mps 770 mmHg 63%
    12:00 +9°C° 0 mm 3 mps 770 mmHg 59%
    13:00 +8°C° 0 mm 3 mps 770 mmHg 62%
    14:00 +8°C° 0 mm 3 mps 770 mmHg 65%
    15:00 +8°C° 0 mm 3 mps 770 mmHg 67%
    16:00 +6°C° 0 mm 4 mps 770 mmHg 70%
    17:00 +6°C° 0 mm 4 mps 770 mmHg 72%
    18:00 +5°C° 0 mm 5 mps 771 mmHg 74%
    19:00 +5°C° 0 mm 5 mps 771 mmHg 75%
    20:00 +5°C° 0 mm 5 mps 771 mmHg 75%
    21:00 +3°C° 0 mm 5 mps 771 mmHg 75%
    22:00 +3°C° 0 mm 5 mps 771 mmHg 75%
    23:00 +3°C° 0 mm 5 mps 771 mmHg 75%

    Tomorrow, 17 November, Saturday

    Time Temperature Precipitation Wind Pressure Humidity
    00:00 +2°C° 0 mm 5 mps 771 mmHg 76%
    01:00 +2°C° 0 mm 5 mps 771 mmHg 77%
    02:00 +2°C° 0 mm 5 mps 771 mmHg 78%
    03:00 +1°C° 0 mm 5 mps 772 mmHg 79%
    04:00 +1°C° 0 mm 5 mps 772 mmHg 80%
    05:00 +1°C° 0 mm 5 mps 772 mmHg 81%
    06:00 +1°C° 0 mm 6 mps 772 mmHg 82%
    07:00 +1°C° 0 mm 6 mps 772 mmHg 79%
    08:00 +2°C° 0 mm 6 mps 772 mmHg 76%
    09:00 +3°C° 0 mm 7 mps 773 mmHg 73%
    10:00 +4°C° 0 mm 7 mps 773 mmHg 68%
    11:00 +5°C° 0 mm 7 mps 772 mmHg 63%
    12:00 +6°C° 0 mm 7 mps 772 mmHg 58%
    13:00 +7°C° 0 mm 6 mps 772 mmHg 58%
    14:00 +7°C° 0 mm 6 mps 772 mmHg 59%
    15:00 +7°C° 0 mm 6 mps 772 mmHg 59%
    16:00 +5°C° 0 mm 7 mps 772 mmHg 61%
    17:00 +4°C° 0 mm 7 mps 772 mmHg 62%
    18:00 +4°C° 0 mm 7 mps 772 mmHg 64%
    19:00 +3°C° 0 mm 7 mps 773 mmHg 63%
    20:00 +3°C° 0 mm 7 mps 773 mmHg 62%
    21:00 +2°C° 0 mm 7 mps 773 mmHg 61%
    22:00 +2°C° 0 mm 7 mps 773 mmHg 60%
    23:00 0°C° 0 mm 7 mps 773 mmHg 59%

    Day after tomorrow, 18 November, Sunday

    Time Temperature Precipitation Wind Pressure Humidity
    00:00 0°C° 0 mm 7 mps 773 mmHg 58%
    01:00 0°C° 0 mm 7 mps 773 mmHg 58%
    02:00 -1°C° 0 mm 7 mps 773 mmHg 57%
    03:00 -1°C° 0 mm 7 mps 773 mmHg 57%
    04:00 -1°C° 0 mm 7 mps 773 mmHg 56%
    05:00 -1°C° 0 mm 7 mps 773 mmHg 55%
    06:00 -2°C° 0 mm 7 mps 773 mmHg 55%
    07:00 -1°C° 0 mm 7 mps 773 mmHg 53%
    08:00 0°C° 0 mm 7 mps 773 mmHg 51%
    09:00 0°C° 0 mm 8 mps 773 mmHg 49%
    10:00 +1°C° 0 mm 8 mps 773 mmHg 46%
    11:00 +4°C° 0 mm 7 mps 773 mmHg 44%
    12:00 +5°C° 0 mm 7 mps 772 mmHg 42%
    13:00 +5°C° 0 mm 7 mps 772 mmHg 42%
    14:00 +4°C° 0 mm 7 mps 772 mmHg 41%
    15:00 +4°C° 0 mm 7 mps 772 mmHg 41%
    16:00 +3°C° 0 mm 7 mps 771 mmHg 44%
    17:00 +3°C° 0 mm 7 mps 771 mmHg 47%
    18:00 +2°C° 0 mm 7 mps 771 mmHg 49%
    19:00 +2°C° 0 mm 7 mps 771 mmHg 57%
    20:00 +2°C° 0 mm 7 mps 771 mmHg 64%
    21:00 0°C° 0 mm 7 mps 772 mmHg 71%
    22:00 0°C° 0 mm 7 mps 771 mmHg 77%
    23:00 0°C° 0 mm 7 mps 771 mmHg 83%

    19 November, Monday

    Time Temperature Precipitation Wind Pressure Humidity
    00:00 0°C° 0 mm 7 mps 771 mmHg 89%
    01:00 0°C° 0 mm 7 mps 771 mmHg 89%
    02:00 0°C° 0 mm 7 mps 771 mmHg 88%
    03:00 0°C° 0 mm 7 mps 771 mmHg 88%
    04:00 0°C° 0 mm 7 mps 770 mmHg 88%
    05:00 0°C° 0 mm 7 mps 770 mmHg 87%
    06:00 0°C° 0 mm 7 mps 770 mmHg 86%
    07:00 +2°C° 0 mm 7 mps 770 mmHg 84%
    08:00 +2°C° 0 mm 7 mps 770 mmHg 82%
    09:00 +3°C° 0 mm 7 mps 770 mmHg 80%
    10:00 +4°C° 0 mm 7 mps 770 mmHg 76%
    11:00 +4°C° 0 mm 7 mps 769 mmHg 71%
    12:00 +5°C° 0 mm 7 mps 769 mmHg 66%
    13:00 +5°C° 0 mm 7 mps 769 mmHg 65%
    14:00 +5°C° 0 mm 7 mps 768 mmHg 64%
    15:00 +4°C° 0 mm 7 mps 768 mmHg 63%
    16:00 +3°C° 0 mm 7 mps 768 mmHg 65%
    17:00 +3°C° 0 mm 7 mps 768 mmHg 68%
    18:00 +2°C° 0 mm 7 mps 768 mmHg 70%
    19:00 0°C° 0 mm 7 mps 768 mmHg 73%
    20:00 0°C° 0 mm 7 mps 768 mmHg 76%
    21:00 0°C° 0 mm 7 mps 768 mmHg 79%
    22:00 0°C° 0 mm 7 mps 768 mmHg 82%
    23:00 -1°C° 0 mm 6 mps 768 mmHg 84%

    20 November, Tuesday

    Time Temperature Precipitation Wind Pressure Humidity
    00:00 -1°C° 0 mm 6 mps 768 mmHg 87%
    01:00 -1°C° 0 mm 6 mps 768 mmHg 88%
    02:00 -1°C° 0 mm 5 mps 767 mmHg 89%
    03:00 -1°C° 0 mm 5 mps 767 mmHg 90%
    04:00 -1°C° 0 mm 5 mps 767 mmHg 91%
    05:00 -1°C° 0 mm 5 mps 767 mmHg 92%
    06:00 -1°C° 0 mm 5 mps 766 mmHg 92%
    07:00 0°C° 0 mm 5 mps 766 mmHg 90%
    08:00 +1°C° 0 mm 5 mps 766 mmHg 87%
    09:00 +1°C° 0 mm 5 mps 766 mmHg 85%
    10:00 +2°C° 0 mm 5 mps 766 mmHg 79%
    11:00 +3°C° 0 mm 5 mps 766 mmHg 73%
    12:00 +5°C° 0 mm 4 mps 765 mmHg 67%
    13:00 +5°C° 0 mm 5 mps 765 mmHg 68%
    14:00 +3°C° 0 mm 5 mps 765 mmHg 68%
    15:00 +3°C° 0 mm 5 mps 764 mmHg 68%
    16:00 +2°C° 0 mm 5 mps 764 mmHg 71%
    17:00 +2°C° 0 mm 5 mps 764 mmHg 74%
    18:00 +1°C° 0 mm 5 mps 764 mmHg 77%
    19:00 +1°C° 0 mm 5 mps 764 mmHg 80%
    20:00 0°C° 0 mm 5 mps 764 mmHg 83%
    21:00 0°C° 0 mm 5 mps 764 mmHg 87%
    22:00 -1°C° 0 mm 5 mps 764 mmHg 88%
    23:00 -1°C° 0 mm 4 mps 764 mmHg 89%

    21 November, Wednesday

    Time Temperature Precipitation Wind Pressure Humidity
    00:00 -1°C° 0 mm 4 mps 764 mmHg 91%
    01:00 -2°C° 0 mm 4 mps 764 mmHg 91%
    02:00 -2°C° 0 mm 4 mps 764 mmHg 91%
    03:00 -2°C° 0 mm 5 mps 764 mmHg 91%
    04:00 -2°C° 0 mm 4 mps 764 mmHg 90%
    05:00 -2°C° 0 mm 4 mps 764 mmHg 90%
    06:00 -2°C° 0 mm 4 mps 765 mmHg 90%
    07:00 -2°C° 0 mm 4 mps 765 mmHg 84%
    08:00 -1°C° 0 mm 4 mps 765 mmHg 79%
    09:00 0°C° 0 mm 4 mps 765 mmHg 73%
    10:00 +1°C° 0 mm 5 mps 765 mmHg 71%
    11:00 +2°C° 0 mm 5 mps 765 mmHg 68%
    12:00 +3°C° 0 mm 6 mps 765 mmHg 65%
    13:00 +2°C° 0 mm 5 mps 765 mmHg 66%
    14:00 +2°C° 0 mm 5 mps 765 mmHg 67%
    15:00 +1°C° 0 mm 5 mps 765 mmHg 68%
    16:00 +1°C° 0 mm 5 mps 765 mmHg 71%
    17:00 +1°C° 0 mm 6 mps 765 mmHg 74%
    18:00 +1°C° 0 mm 6 mps 766 mmHg 77%
    19:00 +2°C° 0.1 mm 7 mps 766 mmHg 80%
    20:00 +2°C° 0.1 mm 7 mps 766 mmHg 83%
    21:00 +1°C° 0.1 mm 8 mps 766 mmHg 86%
    22:00 +2°C° 0 mm 7 mps 766 mmHg 85%
    23:00 0°C° 0 mm 7 mps 766 mmHg 85%
    Show more